| time (UTC) | temp C | wind direction | speed KPH | gust KPH | rain 1hr cm | rain 24hr cm | rain mn cm | humidity % | barometer mb |
| 20260506202306 | 16 | 213 | 17.7 | 38.6 | 0.00 | 0.00 | 0.00 | 86 | 1006.9 |
| 20260506201306 | 15 | 186 | 14.5 | 27.4 | 0.00 | 0.00 | 0.00 | 87 | 1006.9 |
| 20260506200806 | 15 | 181 | 14.5 | 29.0 | 0.00 | 0.00 | 0.00 | 85 | 1007.0 |
| 20260506195306 | 16 | 216 | 16.1 | 27.4 | 0.00 | 0.00 | 0.00 | 86 | 1007.4 |
| 20260506194807 | 16 | 215 | 16.1 | 27.4 | 0.00 | 0.00 | 0.00 | 86 | 1007.5 |
| 20260506194306 | 16 | 210 | 14.5 | 24.1 | 0.00 | 0.00 | 0.00 | 87 | 1007.5 |
| 20260506193807 | 15 | 223 | 16.1 | 25.7 | 0.00 | 0.00 | 0.00 | 88 | 1007.5 |
| 20260506192306 | 15 | 206 | 17.7 | 35.4 | 0.00 | 0.00 | 0.00 | 89 | 1007.5 |
| 20260506191806 | 15 | 205 | 19.3 | 32.2 | 0.00 | 0.00 | 0.00 | 90 | 1007.5 |
| 20260506191306 | 15 | 202 | 19.3 | 32.2 | 0.00 | 0.00 | 0.00 | 90 | 1007.6 |
| 20260506184805 | 15 | 214 | 14.5 | 25.7 | 0.00 | 0.00 | 0.00 | 91 | 1008.0 |
| 20260506182805 | 14 | 210 | 20.9 | 33.8 | 0.00 | 0.00 | 0.00 | 90 | 1008.2 |
| 20260506182307 | 14 | 201 | 19.3 | 32.2 | 0.00 | 0.00 | 0.00 | 89 | 1008.2 |
| 20260506175806 | 14 | 204 | 22.5 | 35.4 | 0.00 | 0.00 | 0.00 | 89 | 1008.4 |
| 20260506175306 | 14 | 218 | 22.5 | 33.8 | 0.00 | 0.00 | 0.00 | 89 | 1008.6 |
| 20260506174805 | 14 | 191 | 19.3 | 38.6 | 0.00 | 0.00 | 0.00 | 89 | 1008.8 |
| 20260506174305 | 14 | 203 | 22.5 | 40.2 | 0.00 | 0.00 | 0.00 | 89 | 1008.8 |
| 20260506172307 | 15 | 202 | 22.5 | 35.4 | 0.00 | 0.00 | 0.00 | 86 | 1008.8 |
| 20260506170806 | 15 | 205 | 16.1 | 40.2 | 0.00 | 0.00 | 0.00 | 87 | 1009.0 |
| 20260506170305 | 14 | 199 | 20.9 | 35.4 | 0.00 | 0.00 | 0.00 | 88 | 1009.1 |
| 20260506165306 | 14 | 195 | 22.5 | 32.2 | 0.00 | 0.00 | 0.00 | 87 | 1009.4 |
| 20260506164305 | 15 | 199 | 20.9 | 37.0 | 0.00 | 0.00 | 0.00 | 87 | 1009.6 |
| 20260506163306 | 15 | 193 | 22.5 | 35.4 | 0.00 | 0.00 | 0.00 | 88 | 1009.7 |
| 20260506162307 | 14 | 209 | 17.7 | 35.4 | 0.00 | 0.00 | 0.00 | 89 | 1009.9 |
| 20260506155805 | 13 | 201 | 20.9 | 32.2 | 0.00 | 0.00 | 0.00 | 89 | 1010.3 |
| 20260506154807 | 13 | 196 | 16.1 | 29.0 | 0.00 | 0.00 | 0.00 | 88 | 1010.1 |
| 20260506154306 | 13 | 198 | 12.9 | 25.7 | 0.00 | 0.00 | 0.00 | 88 | 1010.3 |
| 20260506153805 | 13 | 200 | 19.3 | 35.4 | 0.00 | 0.00 | 0.00 | 88 | 1010.3 |
| 20260506152806 | 14 | 202 | 16.1 | 35.4 | 0.00 | 0.00 | 0.00 | 87 | 1010.3 |
| 20260506152306 | 14 | 203 | 19.3 | 33.8 | 0.00 | 0.00 | 0.00 | 87 | 1010.3 |
| 20260506151806 | 14 | 205 | 19.3 | 35.4 | 0.00 | 0.00 | 0.00 | 88 | 1010.4 |
| 20260506145306 | 14 | 197 | 20.9 | 37.0 | 0.00 | 0.00 | 0.00 | 86 | 1010.6 |
| 20260506144805 | 15 | 199 | 19.3 | 35.4 | 0.00 | 0.00 | 0.00 | 85 | 1010.5 |
| 20260506142306 | 14 | 211 | 19.3 | 33.8 | 0.00 | 0.00 | 0.00 | 87 | 1010.7 |
| 20260506141805 | 14 | 210 | 19.3 | 27.4 | 0.00 | 0.00 | 0.00 | 87 | 1010.6 |
| 20260506141305 | 14 | 193 | 19.3 | 32.2 | 0.00 | 0.00 | 0.00 | 87 | 1010.5 |
| 20260506140805 | 14 | 191 | 19.3 | 35.4 | 0.00 | 0.00 | 0.00 | 87 | 1010.5 |
| 20260506135806 | 15 | 189 | 20.9 | 33.8 | 0.00 | 0.00 | 0.00 | 86 | 1010.5 |
| 20260506134805 | 15 | 212 | 20.9 | 37.0 | 0.00 | 0.00 | 0.00 | 86 | 1010.6 |
| 20260506134306 | 15 | 212 | 20.9 | 35.4 | 0.00 | 0.00 | 0.00 | 86 | 1010.8 |
| 20260506133805 | 15 | 190 | 25.7 | 38.6 | 0.00 | 0.00 | 0.00 | 86 | 1010.7 |
| 20260506132307 | 15 | 202 | 25.7 | 41.8 | 0.00 | 0.00 | 0.00 | 85 | 1010.9 |
| 20260506130805 | 15 | 202 | 27.4 | 46.7 | 0.00 | 0.00 | 0.00 | 86 | 1010.8 |
| 20260506125306 | 15 | 203 | 20.9 | 40.2 | 0.00 | 0.00 | 0.00 | 86 | 1010.9 |
| 20260506124305 | 15 | 214 | 20.9 | 38.6 | 0.00 | 0.00 | 0.00 | 87 | 1010.8 |
| 20260506123805 | 15 | 187 | 19.3 | 35.4 | 0.00 | 0.00 | 0.00 | 86 | 1010.7 |
| 20260506123306 | 15 | 206 | 22.5 | 32.2 | 0.00 | 0.00 | 0.00 | 86 | 1010.7 |
| 20260506122306 | 15 | 194 | 20.9 | 38.6 | 0.00 | 0.00 | 0.00 | 88 | 1010.8 |
| 20260506121805 | 15 | 205 | 22.5 | 40.2 | 0.00 | 0.00 | 0.00 | 88 | 1010.7 |
| 20260506120807 | 15 | 204 | 20.9 | 33.8 | 0.00 | 0.00 | 0.00 | 88 | 1010.6 |
| 20260506120305 | 15 | 217 | 20.9 | 37.0 | 0.00 | 0.00 | 0.00 | 88 | 1010.7 |
| 20260506114805 | 14 | 213 | 20.9 | 45.1 | 0.00 | 0.00 | 0.00 | 89 | 1010.9 |
| 20260506114305 | 14 | 195 | 22.5 | 45.1 | 0.00 | 0.00 | 0.00 | 89 | 1010.9 |
| 20260506113806 | 14 | 211 | 22.5 | 41.8 | 0.00 | 0.00 | 0.00 | 89 | 1010.9 |
| 20260506113306 | 14 | 206 | 19.3 | 35.4 | 0.00 | 0.00 | 0.00 | 90 | 1010.9 |
| 20260506112805 | 14 | 205 | 22.5 | 41.8 | 0.00 | 0.00 | 0.00 | 90 | 1010.9 |
| 20260506112306 | 14 | 208 | 24.1 | 41.8 | 0.00 | 0.00 | 0.00 | 90 | 1010.9 |
| 20260506111805 | 13 | 200 | 19.3 | 40.2 | 0.00 | 0.00 | 0.00 | 91 | 1010.9 |
| 20260506110805 | 13 | 208 | 20.9 | 32.2 | 0.00 | 0.00 | 0.00 | 91 | 1010.8 |
| 20260506110306 | 13 | 208 | 17.7 | 32.2 | 0.00 | 0.00 | 0.00 | 91 | 1010.8 |
| 20260506103305 | 13 | 210 | 19.3 | 33.8 | 0.00 | 0.00 | 0.00 | 92 | 1010.7 |
| 20260506102805 | 13 | 210 | 19.3 | 41.8 | 0.00 | 0.00 | 0.00 | 92 | 1010.7 |
| 20260506102306 | 13 | 214 | 22.5 | 35.4 | 0.00 | 0.00 | 0.00 | 92 | 1010.8 |
| 20260506101805 | 13 | 204 | 20.9 | 32.2 | 0.00 | 0.00 | 0.00 | 92 | 1010.6 |
| 20260506100805 | 13 | 201 | 20.9 | 32.2 | 0.00 | 0.00 | 0.00 | 93 | 1010.6 |
| 20260506094805 | 13 | 211 | 19.3 | 32.2 | 0.00 | 0.00 | 0.00 | 93 | 1010.5 |
| 20260506093305 | 13 | 209 | 19.3 | 32.2 | 0.00 | 0.00 | 0.00 | 92 | 1010.6 |
| 20260506092805 | 13 | 203 | 22.5 | 32.2 | 0.00 | 0.00 | 0.00 | 92 | 1010.7 |
| 20260506091806 | 13 | 212 | 20.9 | 33.8 | 0.00 | 0.00 | 0.00 | 92 | 1010.8 |
| 20260506090306 | 13 | 201 | 19.3 | 32.2 | 0.00 | 0.00 | 0.00 | 92 | 1010.9 |
| 20260506082305 | 13 | 203 | 22.5 | 33.8 | 0.00 | 0.00 | 0.00 | 91 | 1010.9 |
| 20260506081305 | 13 | 213 | 20.9 | 33.8 | 0.00 | 0.00 | 0.00 | 91 | 1011.0 |
| 20260506080805 | 13 | 209 | 17.7 | 32.2 | 0.00 | 0.00 | 0.00 | 91 | 1011.0 |
| 20260506080305 | 13 | 218 | 22.5 | 33.8 | 0.00 | 0.00 | 0.00 | 91 | 1011.0 |
| 20260506073305 | 14 | 213 | 25.7 | 48.3 | 0.00 | 0.00 | 0.00 | 89 | 1011.2 |
| 20260506072805 | 14 | 207 | 25.7 | 41.8 | 0.00 | 0.00 | 0.00 | 89 | 1011.3 |
| 20260506070806 | 14 | 204 | 24.1 | 33.8 | 0.00 | 0.00 | 0.00 | 89 | 1011.2 |
| 20260506070306 | 14 | 211 | 24.1 | 41.8 | 0.00 | 0.00 | 0.00 | 89 | 1011.3 |
| 20260506061306 | 15 | 204 | 27.4 | 40.2 | 0.00 | 0.00 | 0.00 | 86 | 1011.2 |
| 20260506060805 | 15 | 213 | 24.1 | 37.0 | 0.00 | 0.00 | 0.00 | 86 | 1011.2 |
| 20260506060306 | 15 | 207 | 20.9 | 32.2 | 0.00 | 0.00 | 0.00 | 86 | 1011.2 |
| 20260506050305 | 14 | 209 | 24.1 | 38.6 | 0.00 | 0.00 | 0.00 | 86 | 1011.8 |
| 20260506044305 | 14 | 215 | 22.5 | 33.8 | 0.00 | 0.00 | 0.00 | 87 | 1011.7 |
| 20260506042305 | 13 | 204 | 20.9 | 35.4 | 0.00 | 0.00 | 0.00 | 87 | 1011.8 |
| 20260506040839 | 13 | 212 | 22.5 | 41.8 | 0.00 | 0.00 | 0.00 | 87 | 1011.8 |
| 20260506035808 | 13 | 212 | 19.3 | 32.2 | 0.00 | 0.00 | 0.00 | 87 | 1011.8 |
| 20260506035306 | 13 | 202 | 19.3 | 37.0 | 0.00 | 0.00 | 0.00 | 87 | 1011.9 |
| 20260506034806 | 13 | 224 | 16.1 | 32.2 | 0.00 | 0.00 | 0.00 | 87 | 1011.9 |
| 20260506034305 | 13 | 206 | 19.3 | 32.2 | 0.00 | 0.00 | 0.00 | 87 | 1011.9 |
| 20260506033805 | 13 | 203 | 17.7 | 32.2 | 0.00 | 0.00 | 0.00 | 86 | 1011.9 |
| 20260506033306 | 13 | 209 | 16.1 | 29.0 | 0.00 | 0.00 | 0.00 | 86 | 1011.9 |
| 20260506032804 | 13 | 212 | 19.3 | 35.4 | 0.00 | 0.00 | 0.00 | 86 | 1011.9 |
| 20260506030805 | 13 | 215 | 22.5 | 33.8 | 0.00 | 0.00 | 0.00 | 85 | 1012.0 |
| 20260506030307 | 14 | 201 | 22.5 | 37.0 | 0.00 | 0.00 | 0.00 | 85 | 1012.0 |
| 20260506024305 | 15 | 211 | 27.4 | 41.8 | 0.00 | 0.00 | 0.00 | 84 | 1012.0 |
| 20260506023305 | 15 | 205 | 20.9 | 40.2 | 0.00 | 0.00 | 0.00 | 83 | 1012.1 |
| 20260506021805 | 15 | 214 | 25.7 | 41.8 | 0.00 | 0.00 | 0.00 | 82 | 1012.1 |
| 20260506021305 | 15 | 202 | 25.7 | 40.2 | 0.00 | 0.00 | 0.00 | 82 | 1012.1 |
| 20260506020805 | 15 | 199 | 27.4 | 40.2 | 0.00 | 0.00 | 0.00 | 83 | 1012.1 |
| 20260506020305 | 15 | 215 | 22.5 | 38.6 | 0.00 | 0.00 | 0.00 | 83 | 1012.0 |
| 20260506015306 | 15 | 205 | 24.1 | 41.8 | 0.00 | 0.00 | 0.00 | 82 | 1011.9 |
| 20260506014807 | 15 | 206 | 25.7 | 38.6 | 0.00 | 0.00 | 0.00 | 82 | 1012.0 |
| 20260506014305 | 15 | 230 | 20.9 | 33.8 | 0.00 | 0.00 | 0.00 | 83 | 1012.0 |
| 20260506013806 | 15 | 200 | 20.9 | 37.0 | 0.00 | 0.00 | 0.00 | 83 | 1011.9 |
| 20260506013305 | 15 | 221 | 19.3 | 32.2 | 0.00 | 0.00 | 0.00 | 83 | 1011.9 |
| 20260506012307 | 15 | 216 | 20.9 | 33.8 | 0.00 | 0.00 | 0.00 | 83 | 1011.9 |
| 20260506011305 | 15 | 206 | 27.4 | 40.2 | 0.00 | 0.00 | 0.00 | 84 | 1011.8 |
| 20260506010805 | 15 | 210 | 20.9 | 37.0 | 0.00 | 0.00 | 0.00 | 83 | 1011.7 |
| 20260506005805 | 15 | 217 | 19.3 | 33.8 | 0.00 | 0.00 | 0.00 | 83 | 1011.5 |
| 20260506004305 | 15 | 197 | 25.7 | 37.0 | 0.00 | 0.00 | 0.00 | 82 | 1011.4 |
| 20260506003804 | 15 | 204 | 22.5 | 46.7 | 0.00 | 0.00 | 0.00 | 82 | 1011.4 |
| 20260506003305 | 15 | 206 | 25.7 | 41.8 | 0.00 | 0.00 | 0.00 | 82 | 1011.5 |
| 20260506002805 | 15 | 200 | 25.7 | 38.6 | 0.00 | 0.00 | 0.00 | 82 | 1011.5 |
| 20260506001304 | 15 | 186 | 25.7 | 33.8 | 0.00 | 0.00 | 0.00 | 82 | 1011.2 |
| 20260506000804 | 15 | 211 | 20.9 | 40.2 | 0.00 | 0.00 | 0.00 | 81 | 1011.3 |
| 20260505235305 | 15 | 216 | 20.9 | 40.2 | 0.00 | 0.00 | 0.00 | 81 | 1011.1 |
| 20260505234305 | 15 | 228 | 20.9 | 37.0 | 0.00 | 0.00 | 0.00 | 79 | 1011.1 |
| 20260505233805 | 15 | 194 | 25.7 | 51.5 | 0.00 | 0.00 | 0.00 | 79 | 1011.1 |
| 20260505231804 | 16 | 208 | 20.9 | 35.4 | 0.00 | 0.00 | 0.00 | 76 | 1011.0 |
| 20260505230305 | 16 | 206 | 22.5 | 38.6 | 0.00 | 0.00 | 0.00 | 77 | 1010.9 |
| 20260505225306 | 16 | 210 | 24.1 | 37.0 | 0.00 | 0.00 | 0.00 | 77 | 1010.5 |
| 20260505224804 | 16 | 201 | 24.1 | 40.2 | 0.00 | 0.00 | 0.00 | 77 | 1010.6 |
| 20260505224305 | 16 | 203 | 24.1 | 46.7 | 0.00 | 0.00 | 0.00 | 76 | 1010.5 |
| 20260505222306 | 17 | 208 | 20.9 | 33.8 | 0.00 | 0.00 | 0.00 | 74 | 1010.5 |
| 20260505220805 | 17 | 205 | 12.9 | 32.2 | 0.00 | 0.00 | 0.00 | 74 | 1010.5 |
| 20260505214805 | 16 | 204 | 25.7 | 51.5 | 0.00 | 0.00 | 0.00 | 75 | 1010.3 |
| 20260505205804 | 16 | 219 | 27.4 | 40.2 | 0.00 | 0.00 | 0.00 | 75 | 1009.9 |
| 20260505205305 | 16 | 183 | 27.4 | 46.7 | 0.00 | 0.00 | 0.00 | 76 | 1009.9 |
| 20260505204804 | 16 | 195 | 25.7 | 37.0 | 0.00 | 0.00 | 0.00 | 76 | 1009.9 |
| 20260505204304 | 16 | 208 | 22.5 | 41.8 | 0.00 | 0.00 | 0.00 | 76 | 1009.9 |